Zurück zum Katalog

STARLINK-31905

AktivKommunikationVLEO
NORAD 59896·PAYLOAD·🇺🇸 United States

Gestartet May 28, 2024 von Cape Canaveral Space Force Station

Loading…

Nächste Überflüge (nächste 24 Stunden)

TLE

AktuellSource: CelesTrak SupGP

Epoche: Sep 14, 2026, 20:45 UTC

1 59896C 24100M   26257.86506944 -.00029237  00000+0 -10591-2 0  2577
2 59896  43.0016 133.6878 0001453 266.2708 234.3879 15.27588385    12

Verfolge STARLINK-31905 in Echtzeit mit AllMySat

Download on the App Store